| time (UTC) | temp F | wind direction | speed MPH | gust MPH | rain 1hr in | rain 24hr in | rain mn in | humidity % | barometer mb |
| 20260906092650 | 53 | 247 | 0.0 | 0.0 | 0.00 | 0.00 | 0.00 | 45 | 1017.4 |
| 20260906091614 | 55 | 266 | 0.0 | 0.0 | 0.00 | 0.00 | 0.00 | 47 | 1017.4 |
| 20260906090621 | 55 | 266 | 0.0 | 0.0 | 0.00 | 0.00 | 0.00 | 46 | 1017.5 |
| 20260906085610 | 54 | 264 | 0.0 | 0.0 | 0.00 | 0.00 | 0.00 | 47 | 1017.3 |
| 20260906084622 | 54 | 264 | 0.0 | 0.0 | 0.00 | 0.00 | 0.00 | 46 | 1017.3 |
| 20260906083629 | 55 | 265 | 0.0 | 0.0 | 0.00 | 0.00 | 0.00 | 45 | 1017.2 |
| 20260906082638 | 55 | 265 | 0.0 | 0.0 | 0.00 | 0.00 | 0.00 | 48 | 1017.4 |
| 20260906081625 | 56 | 261 | 0.0 | 0.0 | 0.00 | 0.00 | 0.00 | 45 | 1017.3 |
| 20260906080615 | 56 | 261 | 0.0 | 0.0 | 0.00 | 0.00 | 0.00 | 44 | 1017.5 |
| 20260906075645 | 56 | 261 | 0.0 | 0.0 | 0.00 | 0.00 | 0.00 | 44 | 1017.5 |
| 20260906074611 | 56 | 232 | 0.0 | 0.0 | 0.00 | 0.00 | 0.00 | 42 | 1017.5 |
| 20260906073618 | 56 | 232 | 0.0 | 0.0 | 0.00 | 0.00 | 0.00 | 43 | 1017.4 |
| 20260906072610 | 57 | 239 | 0.0 | 0.0 | 0.00 | 0.00 | 0.00 | 44 | 1017.5 |
| 20260906071638 | 58 | 267 | 0.0 | 0.0 | 0.00 | 0.00 | 0.00 | 40 | 1017.4 |
| 20260906070623 | 58 | 267 | 0.0 | 0.0 | 0.00 | 0.00 | 0.00 | 41 | 1017.4 |
| 20260906065614 | 58 | 193 | 0.0 | 0.0 | 0.00 | 0.00 | 0.00 | 39 | 1017.5 |
| 20260906064623 | 56 | 193 | 0.0 | 0.0 | 0.00 | 0.00 | 0.00 | 46 | 1017.4 |
| 20260906063617 | 58 | 193 | 0.0 | 0.0 | 0.00 | 0.00 | 0.00 | 40 | 1017.4 |
| 20260906062644 | 59 | 193 | 0.0 | 0.0 | 0.00 | 0.00 | 0.00 | 40 | 1017.5 |
| 20260906061627 | 59 | 193 | 0.0 | 0.0 | 0.00 | 0.00 | 0.00 | 43 | 1017.3 |
| 20260906060626 | 61 | 198 | 0.0 | 0.0 | 0.00 | 0.00 | 0.00 | 46 | 1017.4 |
| 20260906055614 | 59 | 232 | 0.0 | 0.0 | 0.00 | 0.00 | 0.00 | 44 | 1017.3 |
| 20260906054625 | 59 | 257 | 0.0 | 0.0 | 0.00 | 0.00 | 0.00 | 42 | 1017.2 |
| 20260906053628 | 60 | 269 | 0.0 | 0.0 | 0.00 | 0.00 | 0.00 | 39 | 1017.2 |
| 20260906052613 | 60 | 278 | 0.0 | 0.0 | 0.00 | 0.00 | 0.00 | 39 | 1017.3 |
| 20260906051620 | 61 | 232 | 0.0 | 0.0 | 0.00 | 0.00 | 0.00 | 40 | 1017.4 |
| 20260906050646 | 61 | 232 | 0.0 | 0.0 | 0.00 | 0.00 | 0.00 | 37 | 1017.4 |
| 20260906045639 | 62 | 241 | 0.0 | 0.0 | 0.00 | 0.00 | 0.00 | 38 | 1017.4 |
| 20260906044645 | 62 | 270 | 0.0 | 1.0 | 0.00 | 0.00 | 0.00 | 36 | 1017.5 |
| 20260906043612 | 62 | 277 | 0.0 | 0.0 | 0.00 | 0.00 | 0.00 | 34 | 1017.5 |
| 20260906042621 | 62 | 259 | 0.0 | 0.0 | 0.00 | 0.00 | 0.00 | 36 | 1017.5 |
| 20260906041612 | 63 | 280 | 0.0 | 0.0 | 0.00 | 0.00 | 0.00 | 34 | 1017.4 |
| 20260906040616 | 62 | 272 | 0.0 | 0.0 | 0.00 | 0.00 | 0.00 | 42 | 1017.2 |
| 20260906035623 | 64 | 200 | 0.0 | 0.0 | 0.00 | 0.00 | 0.00 | 40 | 1017.2 |
| 20260906034611 | 65 | 200 | 0.0 | 0.0 | 0.00 | 0.00 | 0.00 | 32 | 1017.1 |
| 20260906033638 | 66 | 201 | 0.0 | 0.0 | 0.00 | 0.00 | 0.00 | 34 | 1016.9 |
| 20260906032627 | 67 | 202 | 0.0 | 0.0 | 0.00 | 0.00 | 0.00 | 31 | 1016.8 |
| 20260906031614 | 68 | 202 | 0.0 | 0.0 | 0.00 | 0.00 | 0.00 | 32 | 1016.8 |
| 20260906030622 | 70 | 121 | 0.0 | 7.0 | 0.00 | 0.00 | 0.00 | 35 | 1016.8 |
| 20260906025612 | 69 | 101 | 0.0 | 2.0 | 0.00 | 0.00 | 0.00 | 44 | 1016.6 |
| 20260906024624 | 69 | 259 | 0.0 | 1.0 | 0.00 | 0.00 | 0.00 | 27 | 1016.3 |
| 20260906023611 | 69 | 271 | 0.0 | 2.0 | 0.00 | 0.00 | 0.00 | 27 | 1016.3 |
| 20260906022618 | 69 | 267 | 0.0 | 1.0 | 0.00 | 0.00 | 0.00 | 27 | 1016.2 |
| 20260906021610 | 68 | 259 | 0.0 | 1.0 | 0.00 | 0.00 | 0.00 | 27 | 1016.2 |
| 20260906020617 | 68 | 260 | 0.0 | 0.0 | 0.00 | 0.00 | 0.00 | 29 | 1016.3 |
| 20260906015625 | 68 | 263 | 0.0 | 0.0 | 0.00 | 0.00 | 0.00 | 29 | 1016.3 |
| 20260906014614 | 71 | 253 | 0.0 | 0.0 | 0.00 | 0.00 | 0.00 | 26 | 1016.3 |
| 20260906013622 | 73 | 228 | 0.0 | 0.0 | 0.00 | 0.00 | 0.00 | 26 | 1016.4 |
| 20260906012635 | 73 | 240 | 0.0 | 2.0 | 0.00 | 0.00 | 0.00 | 25 | 1016.5 |
| 20260906011621 | 75 | 228 | 0.0 | 1.0 | 0.00 | 0.00 | 0.00 | 23 | 1016.5 |
| 20260906010628 | 77 | 202 | 0.0 | 2.0 | 0.00 | 0.00 | 0.00 | 26 | 1016.5 |
| 20260906005636 | 77 | 221 | 0.0 | 2.0 | 0.00 | 0.00 | 0.00 | 22 | 1016.5 |
| 20260906004643 | 77 | 209 | 1.0 | 8.0 | 0.00 | 0.00 | 0.00 | 22 | 1016.4 |
| 20260906003612 | 78 | 212 | 4.0 | 15.0 | 0.00 | 0.00 | 0.00 | 22 | 1016.3 |
| 20260906002620 | 79 | 209 | 2.0 | 7.0 | 0.00 | 0.00 | 0.00 | 19 | 1016.2 |
| 20260906001628 | 78 | 203 | 2.0 | 13.0 | 0.00 | 0.00 | 0.00 | 19 | 1016.2 |
| 20260906000628 | 78 | 205 | 2.0 | 9.0 | 0.00 | 0.00 | 0.00 | 26 | 1016.2 |
| 20260905235620 | 79 | 223 | 1.0 | 4.0 | 0.00 | 0.00 | 0.00 | 20 | 1016.1 |
| 20260905234648 | 79 | 250 | 0.0 | 13.0 | 0.00 | 0.00 | 0.00 | 17 | 1016.1 |
| 20260905233613 | 78 | 214 | 4.0 | 13.0 | 0.00 | 0.00 | 0.00 | 23 | 1016.1 |
| 20260905232620 | 78 | 188 | 3.0 | 19.0 | 0.00 | 0.00 | 0.00 | 24 | 1016.0 |
| 20260905231625 | 78 | 211 | 5.0 | 22.0 | 0.00 | 0.00 | 0.00 | 21 | 1016.1 |
| 20260905230615 | 79 | 210 | 5.0 | 21.0 | 0.00 | 0.00 | 0.00 | 21 | 1016.1 |
| 20260905225620 | 78 | 194 | 5.0 | 23.0 | 0.00 | 0.00 | 0.00 | 22 | 1016.0 |
| 20260905224628 | 79 | 198 | 9.0 | 25.0 | 0.00 | 0.00 | 0.00 | 23 | 1016.1 |
| 20260905223615 | 79 | 211 | 6.0 | 22.0 | 0.00 | 0.00 | 0.00 | 19 | 1016.2 |
| 20260905222627 | 78 | 167 | 6.0 | 33.0 | 0.00 | 0.00 | 0.00 | 18 | 1016.1 |
| 20260905221616 | 78 | 198 | 8.0 | 32.0 | 0.00 | 0.00 | 0.00 | 21 | 1016.2 |
| 20260905220622 | 78 | 211 | 4.0 | 21.0 | 0.00 | 0.00 | 0.00 | 18 | 1016.3 |
| 20260905215610 | 79 | 203 | 7.0 | 27.0 | 0.00 | 0.00 | 0.00 | 21 | 1016.5 |
| 20260905214621 | 78 | 198 | 4.0 | 19.0 | 0.00 | 0.00 | 0.00 | 20 | 1016.5 |
| 20260905213646 | 78 | 218 | 4.0 | 16.0 | 0.00 | 0.00 | 0.00 | 25 | 1016.5 |
| 20260905212613 | 78 | 174 | 5.0 | 16.0 | 0.00 | 0.00 | 0.00 | 24 | 1016.7 |
| 20260905211621 | 78 | 150 | 0.0 | 12.0 | 0.00 | 0.00 | 0.00 | 23 | 1016.7 |
| 20260905210612 | 77 | 207 | 2.0 | 13.0 | 0.00 | 0.00 | 0.00 | 31 | 1016.8 |
| 20260905205641 | 77 | 164 | 3.0 | 13.0 | 0.00 | 0.00 | 0.00 | 22 | 1016.8 |
| 20260905204627 | 78 | 169 | 4.0 | 21.0 | 0.00 | 0.00 | 0.00 | 22 | 1016.8 |
| 20260905203615 | 78 | 221 | 2.0 | 16.0 | 0.00 | 0.00 | 0.00 | 23 | 1016.9 |
| 20260905202627 | 78 | 169 | 0.0 | 12.0 | 0.00 | 0.00 | 0.00 | 19 | 1016.9 |
| 20260905201615 | 77 | 195 | 3.0 | 13.0 | 0.00 | 0.00 | 0.00 | 21 | 1017.1 |
| 20260905200621 | 76 | 161 | 0.0 | 0.0 | 0.00 | 0.00 | 0.00 | 28 | 1017.1 |
| 20260905195628 | 77 | 183 | 3.0 | 14.0 | 0.00 | 0.00 | 0.00 | 18 | 1017.2 |
| 20260905194617 | 75 | 184 | 0.0 | 12.0 | 0.00 | 0.00 | 0.00 | 23 | 1017.4 |
| 20260905193624 | 75 | 155 | 0.0 | 5.0 | 0.00 | 0.00 | 0.00 | 30 | 1017.3 |
| 20260905192612 | 76 | 156 | 0.0 | 12.0 | 0.00 | 0.00 | 0.00 | 26 | 1017.6 |
| 20260905191618 | 76 | 236 | 2.0 | 19.0 | 0.00 | 0.00 | 0.00 | 22 | 1017.7 |
| 20260905190628 | 75 | 201 | 0.0 | 6.0 | 0.00 | 0.00 | 0.00 | 23 | 1017.7 |
| 20260905185635 | 75 | 178 | 1.0 | 19.0 | 0.00 | 0.00 | 0.00 | 22 | 1017.8 |
| 20260905184638 | 75 | 215 | 3.0 | 9.0 | 0.00 | 0.00 | 0.00 | 24 | 1017.8 |
| 20260905183624 | 74 | 155 | 1.0 | 9.0 | 0.00 | 0.00 | 0.00 | 24 | 1017.8 |
| 20260905182610 | 74 | 182 | 2.0 | 9.0 | 0.00 | 0.00 | 0.00 | 22 | 1018.0 |
| 20260905181622 | 74 | 163 | 1.0 | 7.0 | 0.00 | 0.00 | 0.00 | 24 | 1018.1 |
| 20260905180624 | 74 | 162 | 0.0 | 7.0 | 0.00 | 0.00 | 0.00 | 30 | 1018.3 |
| 20260905175633 | 74 | 188 | 0.0 | 10.0 | 0.00 | 0.00 | 0.00 | 25 | 1018.4 |
| 20260905174620 | 73 | 185 | 2.0 | 12.0 | 0.00 | 0.00 | 0.00 | 31 | 1018.5 |
| 20260905173628 | 72 | 159 | 3.0 | 12.0 | 0.00 | 0.00 | 0.00 | 28 | 1018.5 |
| 20260905172618 | 72 | 190 | 3.0 | 10.0 | 0.00 | 0.00 | 0.00 | 33 | 1018.5 |
| 20260905171626 | 73 | 156 | 1.0 | 17.0 | 0.00 | 0.00 | 0.00 | 26 | 1018.4 |
| 20260905170613 | 72 | 164 | 1.0 | 10.0 | 0.00 | 0.00 | 0.00 | 26 | 1018.5 |
| 20260905165620 | 71 | 153 | 2.0 | 15.0 | 0.00 | 0.00 | 0.00 | 33 | 1018.5 |
| 20260905164646 | 71 | 194 | 2.0 | 12.0 | 0.00 | 0.00 | 0.00 | 26 | 1018.4 |
| 20260905163614 | 71 | 151 | 2.0 | 10.0 | 0.00 | 0.00 | 0.00 | 30 | 1018.4 |
| 20260905162639 | 71 | 161 | 1.0 | 8.0 | 0.00 | 0.00 | 0.00 | 33 | 1018.3 |
| 20260905161624 | 71 | 178 | 3.0 | 10.0 | 0.00 | 0.00 | 0.00 | 31 | 1018.3 |
| 20260905160611 | 70 | 207 | 3.0 | 10.0 | 0.00 | 0.00 | 0.00 | 31 | 1018.3 |
| 20260905155621 | 69 | 156 | 3.0 | 9.0 | 0.00 | 0.00 | 0.00 | 43 | 1018.0 |
| 20260905154628 | 68 | 126 | 2.0 | 6.0 | 0.00 | 0.00 | 0.00 | 45 | 1018.1 |
| 20260905153615 | 68 | 122 | 0.0 | 2.0 | 0.00 | 0.00 | 0.00 | 45 | 1018.2 |
| 20260905152623 | 67 | 103 | 0.0 | 0.0 | 0.00 | 0.00 | 0.00 | 43 | 1018.3 |
| 20260905151615 | 67 | 103 | 0.0 | 1.0 | 0.00 | 0.00 | 0.00 | 46 | 1018.3 |
| 20260905150624 | 66 | 94 | 0.0 | 1.0 | 0.00 | 0.00 | 0.00 | 49 | 1018.3 |
| 20260905145612 | 66 | 109 | 0.0 | 1.0 | 0.00 | 0.00 | 0.00 | 47 | 1018.3 |
| 20260905144620 | 65 | 53 | 0.0 | 0.0 | 0.00 | 0.00 | 0.00 | 52 | 1018.3 |
| 20260905143612 | 64 | 51 | 0.0 | 0.0 | 0.00 | 0.00 | 0.00 | 50 | 1018.2 |
| 20260905142619 | 63 | 51 | 0.0 | 0.0 | 0.00 | 0.00 | 0.00 | 49 | 1018.2 |
| 20260905141628 | 62 | 51 | 0.0 | 0.0 | 0.00 | 0.00 | 0.00 | 52 | 1018.2 |
| 20260905140614 | 62 | 51 | 0.0 | 0.0 | 0.00 | 0.00 | 0.00 | 50 | 1018.2 |
| 20260905135623 | 61 | 51 | 0.0 | 0.0 | 0.00 | 0.00 | 0.00 | 48 | 1018.1 |
| 20260905134648 | 59 | 208 | 0.0 | 0.0 | 0.00 | 0.00 | 0.00 | 47 | 1017.9 |
| 20260905133614 | 59 | 208 | 0.0 | 0.0 | 0.00 | 0.00 | 0.00 | 42 | 1017.7 |
| 20260905132622 | 59 | 208 | 0.0 | 0.0 | 0.00 | 0.00 | 0.00 | 41 | 1017.6 |
| 20260905131615 | 59 | 208 | 0.0 | 0.0 | 0.00 | 0.00 | 0.00 | 42 | 1017.5 |
| 20260905130622 | 58 | 208 | 0.0 | 0.0 | 0.00 | 0.00 | 0.00 | 43 | 1017.5 |
| 20260905125610 | 57 | 208 | 0.0 | 0.0 | 0.00 | 0.00 | 0.00 | 43 | 1017.3 |
| 20260905124617 | 57 | 202 | 0.0 | 0.0 | 0.00 | 0.00 | 0.00 | 47 | 1017.3 |
| 20260905123624 | 59 | 204 | 0.0 | 2.0 | 0.00 | 0.00 | 0.00 | 51 | 1017.1 |
| 20260905122637 | 61 | 194 | 1.0 | 3.0 | 0.00 | 0.00 | 0.00 | 46 | 1016.9 |
| 20260905121623 | 59 | 196 | 2.0 | 9.0 | 0.00 | 0.00 | 0.00 | 53 | 1016.8 |
| 20260905120624 | 59 | 200 | 3.0 | 8.0 | 0.00 | 0.00 | 0.00 | 53 | 1016.8 |
| 20260905115612 | 61 | 196 | 1.0 | 7.0 | 0.00 | 0.00 | 0.00 | 49 | 1016.9 |
| 20260905114619 | 60 | 173 | 1.0 | 5.0 | 0.00 | 0.00 | 0.00 | 51 | 1016.8 |
| 20260905113629 | 59 | 196 | 0.0 | 1.0 | 0.00 | 0.00 | 0.00 | 54 | 1016.7 |
| 20260905112618 | 58 | 204 | 0.0 | 2.0 | 0.00 | 0.00 | 0.00 | 50 | 1016.8 |
| 20260905111624 | 59 | 202 | 1.0 | 3.0 | 0.00 | 0.00 | 0.00 | 52 | 1016.7 |
| 20260905110632 | 59 | 205 | 1.0 | 3.0 | 0.00 | 0.00 | 0.00 | 50 | 1016.7 |
| 20260905105624 | 60 | 208 | 1.0 | 4.0 | 0.00 | 0.00 | 0.00 | 52 | 1016.6 |
| 20260905104611 | 61 | 188 | 0.0 | 2.0 | 0.00 | 0.00 | 0.00 | 46 | 1016.5 |
| 20260905103619 | 61 | 192 | 0.0 | 1.0 | 0.00 | 0.00 | 0.00 | 43 | 1016.4 |
| 20260905102626 | 61 | 198 | 0.0 | 0.0 | 0.00 | 0.00 | 0.00 | 40 | 1016.5 |
| 20260905101633 | 61 | 210 | 0.0 | 1.0 | 0.00 | 0.00 | 0.00 | 42 | 1016.4 |
| 20260905100623 | 60 | 207 | 0.0 | 0.0 | 0.00 | 0.00 | 0.00 | 45 | 1016.3 |
| 20260905095629 | 61 | 202 | 0.0 | 0.0 | 0.00 | 0.00 | 0.00 | 46 | 1016.2 |
| 20260905094616 | 61 | 209 | 0.0 | 0.0 | 0.00 | 0.00 | 0.00 | 43 | 1016.1 |
| 20260905093620 | 61 | 205 | 0.0 | 1.0 | 0.00 | 0.00 | 0.00 | 44 | 1016.0 |